Regional Weather Roundup
Issued by NWS

Home | Current Version | Previous Version | Text Only | Print | Product List | Glossary Off
Versions: 1 2 3 4 5 6 7 8 9 10 11 12 13 14 15 16 17 18 19 20 21 22 23 24 25 26 27

000
ASUS45 KTFX 290410
RWRMT
MONTANA REGIONAL WEATHER ROUNDUP
NATIONAL WEATHER SERVICE GREAT FALLS MT
1000 PM MDT SUN MAY 28 2017

NOTE: "FAIR" INDICATES FEW OR NO CLOUDS BELOW 12000 FEET WITH NO
SIGNIFICANT WEATHER AND/OR OBSTRUCTIONS TO VISIBILITY.

MTZ001>007-043-290500-
WEST OF THE DIVIDE

CITY           SKY/WX    TMP DP  RH WIND       PRES   REMARKS
KALISPELL      CLEAR     60  48  64 N5        30.13R
MISSOULA       CLEAR     66  42  41 N5        30.14R
BUTTE          PTCLDY    55  41  59 N3        30.30R
MULLAN PASS    CLEAR     61  33  35 CALM      30.27S
ANACONDA         N/A     57  39  51 CALM      30.26R
DEER LODGE       N/A     61  39  44 N6        30.28R
EUREKA           N/A     64  41  42 CALM      30.09R
HAMILTON         N/A     64  43  45 CALM      30.15R
PLAINS           N/A     66  47  50 CALM      30.11R
RONAN            N/A     62  45  53 MISG      30.17R
$$

MTZ008-052>055-290500-
SOUTHWEST MONTANA

CITY           SKY/WX    TMP DP  RH WIND       PRES   REMARKS
BOZEMAN        MOCLDY    58  43  57 SE12      30.25R
DILLON         CLOUDY    58  39  49 E10       30.25R
W YELLOWSTONE  CLOUDY    55  34  44 E7        30.33
ENNIS          CLOUDY    54  39  58 NE9       30.32R
THREE FORKS      N/A     58  45  62 CALM      30.22R
TWIN BRIDGES     N/A     58  40  51 N12       30.20S
$$

MTZ009-010-012-014-046-048-049-054-290500-
EAST SLOPES AND CENTRAL MONTANA

CITY           SKY/WX    TMP DP  RH WIND       PRES   REMARKS
CUT BANK       CLEAR     58  39  49 E8        30.24R
GREAT FALLS    CLEAR     53  47  79 SW3       30.24R
MALMSTROM AFB  CLEAR     52  49  88 S3        30.23R
HELENA         PTCLDY    62  43  49 NW6       30.23R
CHOTEAU          N/A     55  46  71 SW5       30.26S
CONRAD           N/A     54  54 100 SW3       30.24S
$$

MTZ011-013-016-021-045-047-050-051-290500-
NORTH CENTRAL MONTANA

CITY           SKY/WX    TMP DP  RH WIND       PRES   REMARKS
HAVRE          CLEAR     60  30  32 NE7       30.19R
LEWISTOWN      CLEAR     51  39  63 NW3       30.23R
N BAR RANCH      N/A     52  37  58 W6        30.26R
CHINOOK          N/A     59  30  33 N3        30.19R
$$

MTZ017>020-022>027-061-062-290500-
NORTHEAST MONTANA

CITY           SKY/WX    TMP DP  RH WIND       PRES   REMARKS
GLASGOW        CLEAR     57  26  30 N12       30.13R
JORDAN           N/A     58  28  32 N10       30.14R
SIDNEY         CLEAR     53  36  52 N8        30.07R
WOLF POINT     CLEAR     54  30  40 N8        30.11R
MALTA          CLEAR     54  28  37 N10       30.16R
PLENTYWOOD       N/A     52  36  54 NW8       30.08R
SCOBEY           N/A     49  28  44 CALM      30.10R
$$

MTZ028>42-056>058-290500-
SOUTHCENTRAL AND SOUTHEAST MONTANA

CITY           SKY/WX    TMP DP  RH WIND       PRES   REMARKS
BAKER          CLEAR     55  31  39 N13       30.09R
BILLINGS       PTCLDY    59  47  64 SW12      30.21R
LIVINGSTON     CLEAR     51  45  79 E9        30.27R
MILES CITY     CLEAR     62  25  24 NW9       30.11R
BIG TIMBER     CLOUDY    54  46  76 S6        30.30S
EKALAKA          N/A     51  31  46 W7        30.08R
FORSYTH          N/A     61  28  29 N3        30.14R
LAUREL           N/A     56  44  64 CALM      30.19F
ROUNDUP          N/A     58  37  45 NW3       30.11R
$$

REGIONAL REPORTS...DAKOTAS

CITY           SKY/WX    TMP DP  RH WIND       PRES   REMARKS
WILLISTON      CLEAR     54  39  57 N9        30.06R
MINOT          MOCLDY    55  42  61 NW20G28   29.95R
DICKINSON      CLEAR     50  35  56 N7        30.03R
BEACH            N/A     48  36  61 N7        30.11R
CROSBY           N/A     50  39  66 NW9       30.04R
TIOGA            N/A     50  41  71 NW12      30.04R
WATFORD CITY     N/A     50  39  66 N3        30.05R
BISMARCK       CLEAR     56  40  55 NW12      29.96R
GRAND FORKS    CLOUDY    53  50  89 NW17      29.79R
FARGO          CLOUDY    54  48  80 NW14      29.80R
BUFFALO SD       N/A     54  34  46 NW13      30.01R
RAPID CITY     PTCLDY    53  42  66 NW9       30.07R
$$

REGIONAL REPORTS...WYOMING/IDAHO/WASHINGTON

CITY           SKY/WX    TMP DP  RH WIND       PRES   REMARKS
GILLETTE       CLEAR     50  42  74 W14       30.18R
SHERIDAN       PTCLDY    54  40  59 W13       30.20R
BUFFALO WY     CLEAR     56  36  47 NW14      30.24R
CODY           CLEAR     52  41  66 W6        30.31R
YELLOWSTONE LA   N/A     41  38  89 CALM      30.41R
IDAHO FALLS    CLEAR     60  44  55 CALM      30.20R
SALMON         MOCLDY    61  41  48 S5        30.12R
BOISE          CLEAR     74  39  28 N6        30.08R
SPOKANE        PTCLDY    76  47  35 W3        30.08S
$$

REGIONAL REPORTS...ALBERTA

CITY           SKY/WX    TMP DP  RH WIND       PRES   REMARKS
EDMONTON       CLEAR     54  34  47 E5        30.22S
CALGARY        PTCLDY    59  39  47 E9        30.24S
LETHBRIDGE     PTCLDY    57  43  58 E8        30.22R
MEDICINE HAT   CLEAR     55  34  44 N6        30.20R
WATERTON GATE    N/A     55  46  71 N3          N/A
CARDSTON         N/A     57  43  58 S2          N/A
MILK RIVER       N/A     54  43  66 NE12        N/A
$$

REGIONAL REPORTS...SASKATCHEWAN

CITY           SKY/WX    TMP DP  RH WIND       PRES   REMARKS
SWIFT CURRENT  CLEAR     48  32  53 N8        30.17R
SASKATOON      CLEAR     52  37  58 N13G18    30.18R
VAL MARIE        N/A     45  28  53 N8          N/A
ROCKGLEN         N/A     48  34  57 N8          N/A
ASSINIBOIA       N/A     54  34  47 NE2         N/A
$$




USA.gov is the U.S. government's official web portal to all federal, state and local government web resources and services.